Flag for U.S.A. Weather past 2 weeks in Manhattan, Kansas, U.S.A.

Now
41 °F

Fog.


Feels Like: 41 °F
Forecast: 49 / 73 °F
Wind: No wind

Location: Manhattan Municipal Airport

Current Time: Oct 20, 2014 at 8:06:07 AM

Latest Report: Oct 20, 2014 at 7:02 AM


Visibility: 3 mi

Pressure: 30.04 "Hg

Humidity: 100%

Dew point: 41 °F

Location of ManhattanLocation

Historic Weather in Manhattan — Graph

°F

Manhattan temperature yesterday

Maximum temperature yesterday: 73 °F (at 3:52 PM)
Minimum temperature yesterday: 38 °F (at 12:52 AM)
Average temperature yesterday: 55 °F

Past Weeks' High & Low Weather Summary

 TemperatureHumidityPressure
High81 °F (Oct 7, 3:52 PM)100% (Oct 9, 8:52 PM)30.28 "Hg (Oct 9, 8:52 PM)
Low35 °F (Oct 11, 6:52 AM)29% (Oct 7, 4:52 PM)29.67 "Hg (Oct 13, 12:52 PM)
Average56 °F71%29.96 "Hg
* Reported Oct 5 6:52 AM — Oct 20 6:52 AM, Manhattan, Weather by CustomWeather, © 2014

Note: Actual official high and low records may vary slightly from our data, if they occured in-between our weather recording intervals... More about our weather records

Advertising

Manhattan weather history for previous 24 hours

 ConditionsComfort  
Time TempWeatherWind HumidityBarometerVisibility
6:52 AM
Oct 20
43 °FFog.No wind97%30.04 "Hg2 mi
5:52 AM43 °FFog.No wind97%30.02 "Hg4 mi
4:52 AM46 °FFog.No wind96%30.01 "Hg1 mi
3:52 AM46 °FFog.No wind96%30.01 "Hg5 mi
2:52 AM47 °FClear.No wind100%30.01 "Hg8 mi
1:52 AM48 °FClear.No wind96%30.01 "Hg10 mi
12:52 AM50 °FClear.No wind93%30.01 "Hg10 mi
11:52 PM
Oct 19
49 °FClear.No wind97%30.01 "Hg10 mi
9:52 PM57 °FClear.5 mph78%30.00 "Hg10 mi
8:52 PM55 °FClear.No wind80%30.01 "Hg10 mi
7:52 PM60 °FClear.6 mph69%30.01 "Hg10 mi
6:52 PM62 °FSunny.5 mph65%29.99 "Hg10 mi
5:52 PM69 °FSunny.10 mph49%29.98 "Hg10 mi
4:52 PM72 °FSunny.10 mph43%29.98 "Hg10 mi
3:52 PM73 °FSunny.8 mph44%30.01 "Hg10 mi
2:52 PM71 °FSunny.12 mph45%30.02 "Hg10 mi
1:52 PM71 °FSunny.12 mph44%30.05 "Hg10 mi
12:52 PM68 °FSunny.13 mph49%30.08 "Hg10 mi
11:52 AM64 °FSunny.14 mph56%30.10 "Hg10 mi
10:52 AM61 °FSunny.10 mph62%30.12 "Hg10 mi
9:52 AM57 °FSunny.12 mph69%30.14 "Hg10 mi
8:52 AM51 °FSunny.6 mph83%30.15 "Hg10 mi
Weather by CustomWeather, © 2014

See weather overviewHow to use our weather pages